Aurora, IL

2:45 PM CDT on October 22, 2017 (GMT -0500)
Aurora Municipal

Weather History for KARR - July, 2013

Change the Weather History Date:

Friday, July 5, 2013

  Actual Average Record
Temperature  
Mean Temperature 71 °F 72 °F  
Max Temperature 83 °F 84 °F 98 °F (2012)
Min Temperature 59 °F 60 °F 48 °F (2008)
Degree Days  
Heating Degree Days 0 0  
Month to date heating degree days 0 0  
Since 1 June heating degree days 44 41  
Since 1 July heating degree days 0 0  
Cooling Degree Days 6 7  
Month to date cooling degree days 15 35  
Year to date cooling degree days 240 231  
Since 1 June cooling degree days 160 190  
Growing Degree Days 20 (Base 50)    
Moisture  
Dew Point 62 °F    
Average Humidity 70    
Maximum Humidity 93    
Minimum Humidity 47    
Precipitation  
Precipitation 0.00 in 0.11 in 0.41 in (2003)
Month to date precipitation 0.53 0.50  
Year to date precipitation 20.99 17.39  
Sea Level Pressure  
Sea Level Pressure 30.06 in    
Wind  
Wind Speed 4 mph (SSE)    
Max Wind Speed 13 mph    
Max Gust Speed 15 mph    
Visibility 7 miles    
Events      
T = Trace of Precipitation, MM = Missing Value Source: NWS Daily Summary

Daily Weather History Graph

Daily Weather History Graph

Search for Another Location

Airport or City:

Trip Planner

Search our weather history database for the weather conditions in past years. The results will help you decide how hot, cold, wet, or windy it might be!

Date:

Astronomy

Jul. 05, 2013 Rise Set
Actual Time 5:25 AM CDT 8:31 PM CDT
Civil Twilight 4:51 AM CDT 9:05 PM CDT
Nautical Twilight 4:08 AM CDT 9:48 PM CDT
Astronomical Twilight 3:16 AM CDT 10:39 PM CDT
Moon 3:25 AM CDT (7/5) 6:25 PM CDT (7/5)
Length of Visible Light 16h 13m
Length of Day
15h 06m
Waning Crescent, 6% of the Moon is Illuminated
Jul 5
Waning Crescent
Jul 8
New
Jul 15
First Quarter
Jul 22
Full
Jul 29
Last Quarter

Hourly Weather History & Observations

Time (CDT) Temp. Heat Index Dew Point Humidity Pressure Visibility Wind Dir Wind Speed Gust Speed Precip Events Conditions
12:52 AM 66.9 °F - 61.0 °F 81% 30.06 in 9.0 mi South 5.8 mph - N/A   Clear
1:52 AM 64.9 °F - 60.1 °F 84% 30.06 in 9.0 mi Calm Calm - N/A   Clear
2:52 AM 62.1 °F - 59.0 °F 90% 30.06 in 8.0 mi Calm Calm - N/A   Clear
3:52 AM 60.1 °F - 57.0 °F 90% 30.05 in 6.0 mi Calm Calm - N/A   Clear
4:52 AM 59.0 °F - 57.0 °F 93% 30.06 in 6.0 mi ENE 3.5 mph - N/A   Clear
5:52 AM 60.1 °F - 57.9 °F 93% 30.08 in 5.0 mi Calm Calm - N/A   Clear
6:52 AM 64.9 °F - 61.0 °F 87% 30.09 in 5.0 mi Calm Calm - N/A   Clear
7:52 AM 68.0 °F - 63.0 °F 84% 30.09 in 5.0 mi South 3.5 mph - N/A   Haze
8:52 AM 72.0 °F - 64.9 °F 78% 30.10 in 6.0 mi South 5.8 mph - N/A   Haze
9:52 AM 75.9 °F - 66.0 °F 71% 30.09 in 7.0 mi Variable 3.5 mph - N/A   Clear
10:52 AM 78.1 °F - 66.0 °F 66% 30.09 in 8.0 mi South 3.5 mph - N/A   Clear
11:52 AM 81.0 °F 82.7 °F 64.9 °F 58% 30.08 in 9.0 mi Variable 3.5 mph - N/A   Clear
12:52 PM 82.0 °F 83.4 °F 64.0 °F 54% 30.08 in 9.0 mi East 4.6 mph - N/A   Clear
1:52 PM 82.0 °F 82.7 °F 61.0 °F 49% 30.06 in 10.0 mi SSE 9.2 mph - N/A   Clear
2:52 PM 82.9 °F 83.2 °F 60.1 °F 46% 30.05 in 10.0 mi South 8.1 mph - N/A   Clear
3:52 PM 82.9 °F 83.2 °F 60.1 °F 46% 30.04 in 10.0 mi SSE 9.2 mph - N/A   Clear
4:52 PM 82.0 °F 83.0 °F 62.1 °F 51% 30.03 in 9.0 mi South 10.4 mph - N/A   Partly Cloudy
5:52 PM 82.0 °F 83.1 °F 63.0 °F 52% 30.02 in 9.0 mi South 9.2 mph - N/A   Partly Cloudy
6:52 PM 81.0 °F 82.7 °F 64.9 °F 58% 30.02 in 8.0 mi South 8.1 mph - N/A   Partly Cloudy
7:30 PM 78.8 °F - 64.4 °F 61% 30.03 in 7.0 mi South 8.1 mph - N/A   Partly Cloudy
7:52 PM 78.1 °F - 64.9 °F 64% 30.03 in 7.0 mi South 5.8 mph - N/A   Clear
8:52 PM 73.0 °F - 64.9 °F 76% 30.03 in 5.0 mi SSE 6.9 mph - N/A   Haze
9:52 PM 72.0 °F - 63.0 °F 73% 30.04 in 6.0 mi South 4.6 mph - N/A   Haze
10:52 PM 70.0 °F - 63.0 °F 78% 30.05 in 6.0 mi South 4.6 mph - N/A   Haze
11:52 PM 70.0 °F - 63.0 °F 78% 30.05 in 7.0 mi Calm Calm - N/A   Clear